Location: ????????
(60.4333°N, 46.4710°E)
Time: 03:58:59
(UTC+00:00)

Meteor 1-27 - Pass Details

Date: 25 November 2020
Orbit: 838 x 892 km, 81.3° (Epoch: 19 January)

Event Time Altitude Azimuth Distance (km) Brightness Sun altitude
Rises 13:37:08 0° 192° (SSW) 3,410 7.9 -10.5°
Reaches altitude 10° 13:39:32 10° 192° (SSW) 2,485 7.2 -10.8°
Maximum altitude 13:45:11 85° 106° (ESE) 876 4.2 -11.5°
Drops below altitude 10° 13:50:58 10° 18° (NNE) 2,538 6.3 -12.1°
Enters shadow 13:53:13 - 18° (NNE) 3,406 7.0 -12.4°
